Niagara Falls, NY

11:03 AM EST on November 18, 2019 (GMT -0500)
Niagara Falls International

Weather History for KIAG - September, 2019

Change the Weather History Date:

Monday, September 2, 2019

  Actual Average Record
Temperature  
Mean Temperature 68 °F -  
Max Temperature 73 °F 75 °F 88 °F (2011)
Min Temperature 63 °F 56 °F 44 °F (1991)
Cooling Degree Days 2    
Growing Degree Days 18 (Base 50)    
Moisture  
Dew Point 63 °F    
Average Humidity 89    
Maximum Humidity 100    
Minimum Humidity 61    
Precipitation  
Precipitation 0.68 in - - ()
Sea Level Pressure  
Sea Level Pressure 30.00 in    
Wind  
Wind Speed 5 mph ()    
Max Wind Speed 12 mph    
Max Gust Speed 18 mph    
Visibility 7.5 miles    
Events Rain    
Averages and records for this station are not official NWS values.
T = Trace of Precipitation, MM = Missing Value Source: Averaged Metar Reports

Daily Weather History Graph

Daily Weather History Graph

Search for Another Location

Airport or City:

Astronomy

Sep. 02, 2019 Rise Set
Actual Time 6:40 AM EDT 7:49 PM EDT
Civil Twilight 6:11 AM EDT 8:18 PM EDT
Nautical Twilight 5:36 AM EDT 8:53 PM EDT
Astronomical Twilight 4:59 AM EDT 9:29 PM EDT
Moon 10:26 AM EDT (9/2) 10:03 PM EDT (9/2)
Length of Visible Light 14h 06m
Length of Day
13h 08m
Waxing Crescent, 15% of the Moon is Illuminated
Sep 2
Waxing Crescent
Sep 5
First Quarter
Sep 14
Full
Sep 21
Last Quarter
Sep 28
New

Hourly Weather History & Observations

Time (EDT) Temp. Dew Point Humidity Pressure Visibility Wind Dir Wind Speed Gust Speed Precip Events Conditions
12:53 AM 64.9 °F 64.0 °F 97% 30.03 in 1.5 mi West 5.8 mph - 0.08 in Rain Heavy Rain
1:03 AM 64.9 °F 64.0 °F 97% 30.03 in 1.2 mi SW 4.6 mph - 0.08 in Rain Rain
1:11 AM 64.9 °F 64.0 °F 97% 30.03 in 1.8 mi SSW 4.6 mph - 0.10 in Rain Heavy Rain
1:14 AM 64.9 °F 64.0 °F 97% 30.02 in 3.0 mi South 5.8 mph - 0.11 in Rain Light Rain
1:53 AM 64.9 °F 64.0 °F 97% 30.01 in 10.0 mi SW 4.6 mph - 0.16 in   Overcast
2:26 AM 66.0 °F 64.0 °F 93% 30.01 in 10.0 mi South 4.6 mph - 0.02 in   Overcast
2:53 AM 66.0 °F 64.9 °F 96% 29.99 in 10.0 mi SW 4.6 mph - 0.02 in   Overcast
3:06 AM 66.0 °F 64.9 °F 96% 29.99 in 10.0 mi SW 5.8 mph - N/A   Overcast
3:17 AM 66.0 °F 64.9 °F 96% 29.99 in 6.0 mi WSW 4.6 mph - 0.00 in Rain Light Rain
3:47 AM 64.4 °F 64.4 °F 100% 29.99 in 1.5 mi NW 5.8 mph - 0.08 in Rain Heavy Rain
3:49 AM 64.4 °F 64.4 °F 100% 29.99 in 1.0 mi NW 5.8 mph - 0.14 in Rain Heavy Rain
3:53 AM 64.9 °F 64.0 °F 97% 29.98 in 0.8 mi NNW 4.6 mph - 0.25 in Rain Heavy Rain
4:01 AM 64.9 °F 64.0 °F 97% 29.98 in 0.8 mi NNW 6.9 mph - 0.12 in Rain Heavy Rain
4:05 AM 64.9 °F 64.0 °F 97% 29.98 in 1.2 mi NNW 6.9 mph - 0.14 in Rain Heavy Rain
4:07 AM 64.9 °F 64.0 °F 97% 29.99 in 1.5 mi NNW 6.9 mph - 0.14 in Rain Rain
4:11 AM 64.9 °F 64.0 °F 97% 29.98 in 4.0 mi NW 6.9 mph - 0.14 in Rain Light Rain
4:20 AM 64.9 °F 64.0 °F 97% 29.98 in 8.0 mi NW 8.1 mph - 0.14 in Rain Light Rain
4:42 AM 64.9 °F 63.0 °F 93% 29.99 in 9.0 mi NW 6.9 mph - 0.15 in   Overcast
4:53 AM 64.9 °F 63.0 °F 93% 29.99 in 8.0 mi NW 5.8 mph - 0.15 in Rain Light Rain
5:02 AM 64.9 °F 63.0 °F 93% 29.99 in 8.0 mi NNW 6.9 mph - 0.00 in Rain Light Rain
5:15 AM 64.9 °F 64.0 °F 97% 29.98 in 5.0 mi NNW 4.6 mph - 0.00 in Rain Light Rain
5:26 AM 64.9 °F 63.0 °F 93% 29.99 in 8.0 mi NNW 8.1 mph - 0.00 in Rain Light Rain
5:41 AM 64.9 °F 63.0 °F 93% 29.98 in 9.0 mi NNW 6.9 mph - 0.00 in   Overcast
5:53 AM 64.9 °F 63.0 °F 93% 29.98 in 9.0 mi North 5.8 mph - 0.00 in   Overcast
6:04 AM 64.0 °F 63.0 °F 96% 29.99 in 10.0 mi NNW 6.9 mph - N/A   Overcast
6:18 AM 64.0 °F 62.1 °F 93% 29.99 in 10.0 mi NNW 6.9 mph - N/A   Overcast
6:36 AM 64.0 °F 62.1 °F 93% 29.99 in 10.0 mi NNW 4.6 mph - N/A   Overcast
6:53 AM 64.0 °F 63.0 °F 96% 30.00 in 8.0 mi NNW 6.9 mph - N/A   Overcast
7:53 AM 63.0 °F 60.1 °F 90% 30.02 in 10.0 mi NNW 3.5 mph - 0.02 in   Overcast
8:53 AM 63.0 °F 61.0 °F 93% 30.02 in 10.0 mi North 4.6 mph - 0.00 in   Overcast
9:53 AM 64.9 °F 59.0 °F 81% 30.02 in 10.0 mi North 3.5 mph - N/A   Overcast
10:53 AM 66.9 °F 59.0 °F 76% 30.02 in 10.0 mi Calm Calm - N/A   Mostly Cloudy
11:53 AM 68.0 °F 57.9 °F 70% 30.02 in 10.0 mi WNW 4.6 mph - N/A   Mostly Cloudy
1:53 PM 70.0 °F 57.9 °F 65% 30.01 in 10.0 mi SW 10.4 mph - N/A   Overcast
2:53 PM 72.0 °F 57.9 °F 61% 29.99 in 10.0 mi WNW 9.2 mph - N/A   Mostly Cloudy
3:53 PM 72.0 °F 59.0 °F 64% 29.99 in 10.0 mi West 6.9 mph 18.4 mph N/A   Scattered Clouds
4:53 PM 72.0 °F 63.0 °F 73% 29.99 in 10.0 mi SW 11.5 mph - N/A   Overcast
5:53 PM 70.0 °F 62.1 °F 76% 29.99 in 10.0 mi SSW 8.1 mph - N/A   Scattered Clouds
6:51 PM 71.6 °F 62.6 °F 73% 30.00 in 10.0 mi WSW 8.1 mph - N/A   Mostly Cloudy
6:53 PM 71.1 °F 62.1 °F 73% 29.99 in 10.0 mi WSW 8.1 mph - N/A   Scattered Clouds
7:53 PM 68.0 °F 63.0 °F 84% 30.01 in 10.0 mi SW 9.2 mph - N/A   Clear
8:53 PM 66.9 °F 63.0 °F 87% 30.01 in 10.0 mi SW 8.1 mph - N/A   Mostly Cloudy
9:53 PM 64.9 °F 63.0 °F 93% 30.03 in 10.0 mi West 4.6 mph - N/A   Scattered Clouds
10:53 PM 66.0 °F 62.1 °F 87% 30.04 in 10.0 mi North 6.9 mph - N/A   Overcast
11:53 PM 64.9 °F 61.0 °F 87% 30.05 in 10.0 mi NNE 5.8 mph - N/A   Mostly Cloudy